Location: Peterborough
(44.3091°N, 78.3197°W)
Time: 07:08:10
(UTC-04:00)

Vanguard 2 - Pass Details

Date: 28 March 2023
Orbit: 552 x 2926 km, 32.9° (Epoch: 04 June)

Event Time Altitude Azimuth Distance (km) Brightness Sun altitude
Rises 03:10:10 0° 191° (S) 6,316 - -36.6°
Reaches altitude 10° 03:16:10 10° 175° (S) 5,565 - -35.9°
Exits shadow 03:20:34 16° 161° (SSE) 5,189 11.4 -35.5°
Maximum altitude 03:26:29 19° 138° (SE) 4,996 11.5 -34.8°
Drops below altitude 10° 03:36:45 10° 101° (ESE) 5,586 12.2 -33.6°
Sets 03:42:39 0° 87° (E) 6,354 12.8 -32.8°
